Location: Campillo
(40.8621°N, 4.2488°W)
Time: 12:46:50
(UTC+00:00)

USA 290 - Pass Details

Date: 11 May 2021
Orbit: 400 x 415 km, 73.6° (Epoch: 12 May)

Event Time Altitude Azimuth Distance (km) Brightness Sun altitude
Rises 20:03:50 0° 348° (NNW) 2,346 6.8 -7.5°
Reaches altitude 10° 20:06:00 10° 358° (N) 1,477 5.5 -7.8°
Maximum altitude 20:08:59 34° 66° (ENE) 697 3.1 -8.3°
Enters shadow 20:11:37 12° 130° (SE) 1,338 4.1 -8.7°
